Regional Weather Roundup
Issued by NWS Albany, NY

Home | Current Version | Previous Version | Text Only | Print | Product List | Glossary On
Versions: 1 2 3 4 5 6 7 8 9 10 11 12 13 14 15 16 17 18 19 20 21 22 23 24 25 26 27 28 29 30 31 32 33 34 35 36 37 38 39 40 41 42 43 44 45 46 47 48 49 50
000
ASUS41 KALY 251610
RWRALY

NEW YORK STATE HOURLY WEATHER ROUNDUP
NATIONAL WEATHER SERVICE ALBANY NY
1200 PM EDT FRI JUL 25 2014

NOTE: "FAIR" INDICATES FEW OR NO CLOUDS BELOW 12,000 FEET WITH NO
SIGNIFICANT WEATHER AND/OR NO OBSTRUCTIONS TO VISIBILITY.

NYZ032-033-038>043-046>054-057>066-NYZ062>081-251700-
EAST


CITY           SKY/WX    TMP DP  RH WIND       PRES   REMARKS
ALBANY         MOSUNNY   75  56  51 VRB3      30.02F
GLENS FALLS    SUNNY     72  57  59 S6        30.00F
POUGHKEEPSIE   SUNNY     75  56  51 VRB5      30.02F
NEWBURGH       SUNNY     72  57  60 CALM      30.05F
MONTGOMERY     SUNNY     75  55  49 CALM      30.04F
WHITE PLAINS   MOSUNNY   75  53  46 NW8       30.02S
ISLIP          SUNNY     79  48  33 VRB7G17   29.99S
NEW YORK CITY  MOSUNNY   77  54  44 VRB6      30.01S
CENTRAL PARK   SUNNY     78  54  43 E3        30.05S
$$

NYZ005>009-017-018-044>046-055-056-251700-
CENTRAL


CITY           SKY/WX    TMP DP  RH WIND       PRES   REMARKS
FULTON         SUNNY     73  51  46 W9        30.05S
SYRACUSE       MOSUNNY   75  51  43 W10       30.04F
ROME           SUNNY     71  57  61 W9        30.05F
ELMIRA         SUNNY     71  55  56 VRB6      30.07F
BINGHAMTON     SUNNY     70  53  54 CALM      30.08F
MONTICELLO     SUNNY     72  54  53 SW3       30.08F
$$

NYZ026>034-041>043-251700-
NORTH


CITY           SKY/WX    TMP DP  RH WIND       PRES   REMARKS
WATERTOWN      MOSUNNY   72  57  59 SW9G21    30.03S
FORT DRUM      NOT AVBL
MASSENA        SUNNY     73  59  61 SW14G21   29.97S
SARANAC LAKE   MOSUNNY   70  52  52 VRB5      30.00F
PLATTSBURGH    SUNNY     72  61  68 SE14      29.94F
$$

NYZ001>004-010>016-019>021-251700-
WEST


CITY           SKY/WX    TMP DP  RH WIND       PRES   REMARKS
NIAGARA FALLS  MOSUNNY   74  53  48 SW9       30.05F
BUFFALO        MOSUNNY   73  54  51 SW13G22   30.07S
DUNKIRK        SUNNY     70  54  56 W14G22    30.08F
JAMESTOWN      SUNNY     66  50  55 SW7       30.11F
WELLSVILLE     MOSUNNY   68  51  54 SW8       30.13S
ROCHESTER      MOSUNNY   73  55  53 W10       30.06S
PENN YAN       SUNNY     72  54  53 VRB6      30.08S
$$

             KEY
       WCI = WIND CHILL INDEX
       VSB = VISIBILITY
       HX  = HEAT INDEX
$$



USA.gov is the U.S. government's official web portal to all federal, state and local government web resources and services.